COSMOS 2251 DEB, 34784

Orbit data source: Space-Track

COSMOS 2251 DEB, 34784 is space debris in LEO originally from a launch on Wed, 16 Jun 1993 UTC launched from the Plesetsk Missile And Space Complex (PKMTR). The debris from Iridium 33, an American commercial communications satellite, has been tracked extensively since its accidental collision with the defunct Russian satellite Cosmos 2251 in 2009. This event, occurring at high speed in low Earth orbit (LEO), generated thousands of pieces of space debris, significantly increasing the risk of further collisions. The Iridium 33 debris cloud has impacted space traffic management and orbital debris mitigation strategies, making it a subject of ongoing study in space situational awareness.

Loading next visibility...
Identifier
34784, 1993-036AAM
Orbit
LEO
Country
Flag of CISCIS
Related business
Manufacturer
Unknown
Mission
Spacecraft
Bus & Motor
Unknown
Mass
Unknown
Launch date (UTC)
1993-06-16 (33 years ago)
Launch vehicle
Unknown
Launch site
Plesetsk Missile And Space Complex (PKMTR)
Object type
Payload
Rocket body
Debris
Shape & HBR
Unknown shape, 0.1 m
Radar Cross Section
Small (<0.1 m²)

Expand to show TLE details & history
Last TLE update: 2 days ago

TLE from 2 days ago
0 COSMOS 2251 DEB
1 34784U 93036AAM 26237.30180488  .00001752  00000-0  35044-3 0  9993
2 34784  74.0057 194.7149 0051604 298.3096  61.2869 14.61821195922686
Epoch: 2026-08-25T07:14Z
TLE epoch observation values (Epoch: 2026-08-25T07:14:35.941Z)
Latitude
-0.00006°
Longitude
112.49402°
Altitude
672.566 km
Speed
7.53 km/s
True Right ascension
12h 58m 51s
True Declination
0° 00' 00"
Sunlit
Object was in daylight at epoch
Visualization orbit readout
Latitude
Unknown
Longitude
Unknown
Altitude
Unknown
Speed
Unknown
Apparent Right ascension
Unknown
Apparent Declination
Unknown
Sunlit
N/A
Visualization observer readout
Local Sidereal Time
12:25:03
Azimuth
Unknown
Elevation
Unknown
Doppler factor
Unknown
Orbital elements
Apogee altitude
721.346 km
Perigee altitude
648.45 km
Semi-major axis
7,063.035 km
Eccentricity
0.00516
Inclination
74.0057°
RAAN
194.7149°
Arg. of periapsis
298.3096°
True anomaly
61.80713°
Mean anomaly
61.2869°
Eccentric anomaly
61.54685°
Mean motion
3.65642 °/min
Orbital period
98.46 mins
BSTAR
0.00035044
Loading maneuver chart data...
Computing Atmospheric mass density...

Documentation

Showing up to 5 results
|